| time (UTC) | temp F | wind direction | speed MPH | gust MPH | rain 1hr in | rain 24hr in | rain mn in | humidity % | barometer mb |
| 20260507094523 | 68 | 325 | 2.0 | 6.0 | 0.00 | 0.00 | 0.00 | 47 | 1013.0 |
| 20260507093019 | 67 | 268 | 2.0 | 6.0 | 0.00 | 0.00 | 0.00 | 50 | 1013.1 |
| 20260507091516 | 66 | 244 | 1.0 | 5.0 | 0.00 | 0.00 | 0.00 | 53 | 1013.0 |
| 20260507090019 | 66 | 242 | 1.0 | 5.0 | 0.00 | 0.00 | 0.00 | 58 | 1012.9 |
| 20260507084511 | 65 | 302 | 0.0 | 4.0 | 0.00 | 0.00 | 0.00 | 59 | 1012.9 |
| 20260507083002 | 64 | 298 | 0.0 | 3.0 | 0.00 | 0.00 | 0.00 | 61 | 1013.0 |
| 20260507081604 | 63 | 289 | 0.0 | 4.0 | 0.00 | 0.00 | 0.00 | 63 | 1012.8 |
| 20260507080053 | 63 | 45 | 0.0 | 6.0 | 0.00 | 0.00 | 0.00 | 66 | 1012.8 |
| 20260507074601 | 61 | 248 | 0.0 | 2.0 | 0.00 | 0.00 | 0.00 | 71 | 1012.9 |
| 20260507073044 | 59 | 246 | 0.0 | 3.0 | 0.00 | 0.00 | 0.00 | 82 | 1012.9 |
| 20260507071540 | 57 | 244 | 0.0 | 2.0 | 0.00 | 0.00 | 0.00 | 90 | 1012.9 |
| 20260507070036 | 55 | 245 | 0.0 | 0.0 | 0.00 | 0.00 | 0.00 | 93 | 1012.7 |
| 20260507064532 | 54 | 245 | 0.0 | 0.0 | 0.00 | 0.00 | 0.00 | 94 | 1012.7 |
| 20260507063029 | 52 | 245 | 0.0 | 2.0 | 0.00 | 0.00 | 0.00 | 94 | 1012.6 |
| 20260507061523 | 50 | 244 | 0.0 | 0.0 | 0.00 | 0.00 | 0.00 | 94 | 1012.6 |
| 20260507060026 | 49 | 244 | 0.0 | 0.0 | 0.00 | 0.00 | 0.00 | 94 | 1012.6 |
| 20260507054515 | 48 | 244 | 0.0 | 0.0 | 0.00 | 0.00 | 0.00 | 94 | 1012.6 |
| 20260507053012 | 48 | 244 | 0.0 | 0.0 | 0.00 | 0.00 | 0.00 | 93 | 1012.5 |
| 20260507051510 | 47 | 244 | 0.0 | 0.0 | 0.00 | 0.00 | 0.00 | 93 | 1012.4 |
| 20260507050023 | 48 | 244 | 0.0 | 0.0 | 0.00 | 0.00 | 0.00 | 93 | 1012.3 |
| 20260507044507 | 48 | 244 | 0.0 | 0.0 | 0.00 | 0.00 | 0.00 | 93 | 1012.2 |
| 20260507043004 | 48 | 244 | 0.0 | 0.0 | 0.00 | 0.00 | 0.00 | 93 | 1012.2 |
| 20260507041503 | 49 | 244 | 0.0 | 0.0 | 0.00 | 0.00 | 0.00 | 93 | 1012.1 |
| 20260507040005 | 49 | 244 | 0.0 | 0.0 | 0.00 | 0.00 | 0.00 | 93 | 1012.1 |
| 20260507034500 | 49 | 246 | 1.0 | 2.0 | 0.00 | 0.00 | 0.00 | 93 | 1012.0 |
| 20260507033105 | 49 | 246 | 0.0 | 0.0 | 0.00 | 0.00 | 0.00 | 92 | 1011.9 |
| 20260507031607 | 50 | 246 | 0.0 | 1.0 | 0.00 | 0.00 | 0.00 | 92 | 1011.9 |
| 20260507030059 | 50 | 246 | 0.0 | 2.0 | 0.00 | 0.00 | 0.00 | 92 | 1012.1 |
| 20260507024555 | 51 | 245 | 0.0 | 0.0 | 0.00 | 0.00 | 0.00 | 92 | 1011.9 |
| 20260507023103 | 50 | 245 | 0.0 | 1.0 | 0.00 | 0.00 | 0.00 | 92 | 1011.8 |
| 20260507021552 | 50 | 245 | 0.0 | 0.0 | 0.00 | 0.00 | 0.00 | 92 | 1012.0 |
| 20260507020055 | 51 | 245 | 0.0 | 0.0 | 0.00 | 0.00 | 0.00 | 92 | 1012.0 |
| 20260507014552 | 52 | 245 | 0.0 | 0.0 | 0.00 | 0.02 | 0.00 | 92 | 1012.1 |
| 20260507013046 | 52 | 245 | 0.0 | 0.0 | 0.00 | 0.02 | 0.00 | 92 | 1012.1 |
| 20260507011544 | 52 | 245 | 0.0 | 0.0 | 0.00 | 0.02 | 0.00 | 91 | 1012.1 |
| 20260507010043 | 53 | 245 | 0.0 | 0.0 | 0.00 | 0.02 | 0.00 | 91 | 1012.2 |
| 20260507004540 | 53 | 245 | 0.0 | 2.0 | 0.00 | 0.40 | 0.00 | 91 | 1012.2 |
| 20260507003039 | 53 | 245 | 0.0 | 0.0 | 0.00 | 0.40 | 0.00 | 90 | 1012.4 |
| 20260507001540 | 53 | 245 | 0.0 | 0.0 | 0.00 | 0.40 | 0.00 | 90 | 1012.3 |
| 20260507000039 | 53 | 245 | 0.0 | 0.0 | 0.00 | 0.40 | 0.00 | 90 | 1012.4 |
| 20260506234533 | 53 | 245 | 0.0 | 2.0 | 0.00 | 0.56 | 0.00 | 89 | 1012.4 |
| 20260506233033 | 54 | 245 | 0.0 | 1.0 | 0.00 | 0.56 | 0.00 | 89 | 1012.6 |
| 20260506231528 | 55 | 246 | 0.0 | 2.0 | 0.00 | 0.56 | 0.00 | 88 | 1012.7 |
| 20260506230027 | 55 | 246 | 0.0 | 3.0 | 0.00 | 0.56 | 0.00 | 88 | 1012.7 |
| 20260506224525 | 55 | 242 | 0.0 | 4.0 | 0.00 | 0.62 | 0.00 | 88 | 1012.7 |
| 20260506223024 | 55 | 237 | 1.0 | 5.0 | 0.00 | 0.62 | 0.00 | 87 | 1012.7 |
| 20260506221521 | 56 | 252 | 0.0 | 4.0 | 0.00 | 0.62 | 0.00 | 86 | 1012.9 |
| 20260506220023 | 56 | 253 | 2.0 | 8.0 | 0.00 | 0.62 | 0.00 | 86 | 1012.7 |
| 20260506214517 | 56 | 248 | 3.0 | 5.0 | 0.00 | 0.63 | 0.62 | 84 | 1012.7 |
| 20260506213016 | 56 | 245 | 3.0 | 6.0 | 0.00 | 0.63 | 0.62 | 84 | 1012.6 |
| 20260506211518 | 56 | 242 | 2.0 | 6.0 | 0.00 | 0.63 | 0.62 | 83 | 1012.6 |
| 20260506210015 | 55 | 242 | 2.0 | 7.0 | 0.00 | 0.63 | 0.62 | 82 | 1012.7 |
| 20260506204520 | 55 | 246 | 1.0 | 3.0 | 0.00 | 0.63 | 0.62 | 81 | 1012.6 |
| 20260506203012 | 56 | 246 | 1.0 | 4.0 | 0.00 | 0.63 | 0.62 | 80 | 1012.4 |
| 20260506201513 | 56 | 250 | 0.0 | 7.0 | 0.00 | 0.63 | 0.62 | 80 | 1012.2 |
| 20260506200008 | 56 | 250 | 1.0 | 4.0 | 0.00 | 0.63 | 0.62 | 80 | 1012.1 |
| 20260506194514 | 56 | 243 | 2.0 | 6.0 | 0.00 | 0.63 | 0.62 | 80 | 1011.9 |
| 20260506193004 | 56 | 245 | 3.0 | 6.0 | 0.00 | 0.63 | 0.62 | 80 | 1011.4 |
| 20260506191501 | 57 | 248 | 2.0 | 7.0 | 0.00 | 0.63 | 0.62 | 79 | 1011.2 |
| 20260506184558 | 58 | 248 | 2.0 | 7.0 | 0.00 | 0.63 | 0.62 | 74 | 1010.7 |
| 20260506183056 | 60 | 246 | 1.0 | 5.0 | 0.00 | 0.63 | 0.62 | 72 | 1010.5 |
| 20260506181556 | 61 | 239 | 3.0 | 7.0 | 0.00 | 0.63 | 0.62 | 70 | 1010.4 |
| 20260506180104 | 62 | 245 | 2.0 | 8.0 | 0.00 | 0.63 | 0.62 | 68 | 1010.1 |
| 20260506174550 | 62 | 229 | 2.0 | 7.0 | 0.00 | 0.63 | 0.62 | 65 | 1010.0 |
| 20260506173055 | 63 | 244 | 6.0 | 11.0 | 0.00 | 0.63 | 0.62 | 62 | 1009.8 |
| 20260506171550 | 64 | 249 | 2.0 | 7.0 | 0.00 | 0.63 | 0.62 | 62 | 1009.6 |
| 20260506170100 | 64 | 170 | 4.0 | 8.0 | 0.00 | 0.63 | 0.62 | 62 | 1009.6 |
| 20260506164546 | 64 | 241 | 3.0 | 10.0 | 0.00 | 0.63 | 0.62 | 63 | 1009.7 |
| 20260506163105 | 64 | 229 | 4.0 | 10.0 | 0.00 | 0.63 | 0.62 | 63 | 1009.7 |
| 20260506161542 | 65 | 257 | 4.0 | 11.0 | 0.00 | 0.63 | 0.62 | 62 | 1009.8 |
| 20260506160042 | 64 | 238 | 6.0 | 11.0 | 0.00 | 0.63 | 0.62 | 63 | 1009.8 |
| 20260506154525 | 65 | 250 | 4.0 | 11.0 | 0.00 | 0.63 | 0.62 | 62 | 1009.7 |
| 20260506153024 | 64 | 240 | 4.0 | 12.0 | 0.00 | 0.63 | 0.62 | 62 | 1009.6 |
| 20260506151523 | 65 | 248 | 5.0 | 9.0 | 0.00 | 0.63 | 0.62 | 61 | 1009.6 |
| 20260506150027 | 66 | 246 | 6.0 | 11.0 | 0.00 | 0.63 | 0.62 | 60 | 1009.7 |
| 20260506144524 | 66 | 238 | 6.0 | 13.0 | 0.00 | 0.63 | 0.62 | 59 | 1009.8 |
| 20260506143021 | 66 | 240 | 6.0 | 12.0 | 0.00 | 0.63 | 0.62 | 58 | 1009.8 |
| 20260506141617 | 66 | 266 | 6.0 | 13.0 | 0.00 | 0.63 | 0.62 | 56 | 1009.8 |
| 20260506140015 | 66 | 228 | 5.0 | 15.0 | 0.00 | 0.63 | 0.62 | 55 | 1009.9 |
| 20260506134514 | 66 | 218 | 4.0 | 14.0 | 0.00 | 0.63 | 0.62 | 60 | 1009.9 |
| 20260506133012 | 66 | 244 | 4.0 | 17.0 | 0.00 | 0.63 | 0.62 | 60 | 1010.1 |
| 20260506131546 | 67 | 248 | 6.0 | 14.0 | 0.00 | 0.63 | 0.62 | 59 | 1010.1 |
| 20260506130044 | 66 | 194 | 6.0 | 11.0 | 0.00 | 0.63 | 0.62 | 59 | 1010.1 |
| 20260506124508 | 66 | 231 | 6.0 | 12.0 | 0.00 | 0.63 | 0.62 | 60 | 1010.1 |
| 20260506123056 | 65 | 250 | 2.0 | 12.0 | 0.00 | 0.63 | 0.62 | 60 | 1010.0 |
| 20260506121556 | 66 | 249 | 2.0 | 10.0 | 0.00 | 0.63 | 0.62 | 61 | 1010.1 |
| 20260506120059 | 66 | 242 | 5.0 | 9.0 | 0.00 | 0.63 | 0.62 | 58 | 1010.2 |
| 20260506114604 | 66 | 290 | 2.0 | 11.0 | 0.00 | 0.63 | 0.62 | 60 | 1010.1 |
| 20260506113053 | 66 | 232 | 3.0 | 10.0 | 0.00 | 0.63 | 0.62 | 58 | 1010.2 |
| 20260506111549 | 65 | 303 | 3.0 | 8.0 | 0.00 | 0.63 | 0.62 | 56 | 1010.4 |
| 20260506110055 | 65 | 267 | 4.0 | 9.0 | 0.00 | 0.63 | 0.62 | 59 | 1010.4 |
| 20260506104547 | 65 | 258 | 3.0 | 9.0 | 0.00 | 0.63 | 0.62 | 60 | 1010.5 |
| 20260506103028 | 64 | 245 | 5.0 | 9.0 | 0.00 | 0.63 | 0.62 | 61 | 1010.6 |
| 20260506101513 | 63 | 238 | 3.0 | 8.0 | 0.00 | 0.63 | 0.62 | 67 | 1010.5 |
| 20260506100011 | 63 | 289 | 1.0 | 8.0 | 0.00 | 0.63 | 0.62 | 68 | 1010.6 |